Date String (YYYY-MM-DD hh:mm:ss) UTC,Instrument flags,absolute air pressure of the measurement (hPa),sample flow rate (lpm),inlet stack bypass flow (lpm),air temperature of the measurement (°C),ambient temperature measured by the external sensor (°C),aerosol sample conditioner tube jacket temperature (°C),OPC LED temperature (°C),internal box temperature (°C),relative humidity of the measurement (%),span deviation,mass concentration of particles derived from Lorenz-Mie calculation of OPC scattering (μg/m³),mass concentration of particles derived from Lorenz-Mie calculation of OPC scattering (μg/m³),mass concentration of particles derived from Lorenz-Mie calculation of OPC scattering (μg/m³)
DateTimeUTC,F1_M11,P_M11,Q1_M11,Q2_M11,T1_M11,T2_M11,T3_M11,T4_M11,T5_M11,U1_M11,ZSPAN_M11,X0_M11,X2_M11,X1_M11
2023-07-08 12:00:00,SystemResetWarning,0833.3,5.02,000.00,029.9,028.6,000.0,038.4,031.5,30.9,0000.1,0012.86,0007.57,0006.94
2023-07-08 12:01:00,SystemResetWarning,0833.0,5.00,000.00,029.9,028.6,000.0,038.4,031.5,30.8,-000.2,0012.78,0007.58,0006.95
2023-07-08 12:02:00,SystemResetWarning,0833.2,4.99,000.00,030.0,028.6,000.0,038.4,031.5,30.9,-000.6,0012.71,0007.56,0006.95
2023-07-08 12:03:00,SystemResetWarning,0832.9,4.99,000.00,030.0,028.6,000.0,038.5,031.5,31.0,-000.8,0012.57,0007.54,0006.93
2023-07-08 12:04:00,SystemResetWarning,0832.7,5.00,000.00,030.0,028.6,000.0,038.5,031.5,31.1,-001.3,0012.20,0007.53,0006.93
2023-07-08 12:05:00,SystemResetWarning,0832.7,5.01,000.00,030.0,028.6,000.0,038.5,031.5,31.3,-001.3,0012.24,0007.54,0006.94
2023-07-08 12:06:00,SystemResetWarning,0832.7,5.00,000.00,030.0,028.6,000.0,038.5,031.5,31.8,-001.3,0012.59,0007.57,0006.95
2023-07-08 12:07:00,SystemResetWarning,0832.6,4.99,000.00,030.0,028.6,000.0,038.5,031.5,32.1,-000.9,0013.20,0007.56,0006.96
2023-07-08 12:08:00,SystemResetWarning,0832.5,5.00,000.00,030.0,028.6,000.0,038.5,031.5,32.2,-000.9,0012.47,0007.54,0006.97
2023-07-08 12:09:00,SystemResetWarning,0832.4,5.02,000.00,030.0,028.6,000.0,038.5,031.5,32.4,-000.5,0013.12,0007.59,0007.01
2023-07-08 12:10:00,SystemResetWarning,0832.3,4.99,000.00,030.0,028.6,000.0,038.5,031.5,32.1,-000.4,0013.20,0007.63,0007.04
2023-07-08 12:11:00,SystemResetWarning,0832.3,4.99,000.00,030.0,028.6,000.0,038.5,031.5,31.7,-000.5,0013.31,0007.65,0007.04
2023-07-08 12:12:00,SystemResetWarning,0832.3,5.00,000.00,030.0,028.6,000.0,038.5,031.5,31.4,-000.5,0013.34,0007.65,0007.03
2023-07-08 12:13:00,SystemResetWarning,0832.2,5.00,000.00,030.0,028.5,000.0,038.5,031.5,31.3,-000.3,0013.32,0007.59,0007.01
2023-07-08 12:14:00,SystemResetWarning,0832.2,5.00,000.00,030.0,028.5,000.0,038.5,031.5,31.3,-000.5,0013.40,0007.57,0006.99
2023-07-08 12:15:00,SystemResetWarning,0832.2,5.00,000.00,030.0,028.5,000.0,038.6,031.5,31.4,-000.1,0013.53,0007.59,0006.99
2023-07-08 12:16:00,SystemResetWarning,0832.3,5.00,000.00,030.0,028.4,000.0,038.6,031.5,31.4,-000.1,0013.56,0007.57,0006.97
2023-07-08 12:17:00,SystemResetWarning,0832.3,4.99,000.00,030.0,028.4,000.0,038.6,031.5,31.6,-000.1,0013.77,0007.54,0006.96
2023-07-08 12:18:00,SystemResetWarning,0832.5,4.99,000.00,030.0,028.4,000.0,038.6,031.5,31.6,-000.3,0013.38,0007.53,0006.96
2023-07-08 12:19:00,SystemResetWarning,0832.6,5.00,000.00,030.0,028.4,000.0,038.6,031.5,31.8,-000.8,0013.32,0007.51,0006.94
2023-07-08 12:20:00,SystemResetWarning,0832.5,5.02,000.00,030.0,028.4,000.0,038.6,031.5,31.8,-001.4,0012.88,0007.51,0006.93
2023-07-08 12:21:00,SystemResetWarning,0832.6,5.00,000.00,030.0,028.4,000.0,038.6,031.5,31.9,-001.5,0012.54,0007.53,0006.93
2023-07-08 12:22:00,SystemResetWarning,0832.6,4.98,000.00,030.0,028.4,000.0,038.6,031.5,32.1,-001.2,0012.89,0007.55,0006.95
2023-07-08 12:23:00,SystemResetWarning,0832.5,5.02,000.00,030.0,028.4,000.0,038.6,031.5,32.1,-001.2,0013.22,0007.57,0006.95
2023-07-08 12:24:00,SystemResetWarning,0832.5,5.01,000.00,030.0,028.4,000.0,038.6,031.5,32.1,-001.3,0013.27,0007.62,0006.98
2023-07-08 12:25:00,SystemResetWarning,0832.4,4.99,000.00,030.0,028.4,000.0,038.6,031.5,32.1,-001.3,0013.24,0007.66,0007.03
2023-07-08 12:26:00,SystemResetWarning,0832.2,5.00,000.00,030.0,028.4,000.0,038.6,031.5,32.0,-001.6,0013.12,0007.66,0007.07
2023-07-08 12:27:00,SystemResetWarning,0832.2,5.01,000.00,030.0,028.4,000.0,038.6,031.5,31.9,-001.7,0013.06,0007.68,0007.11
2023-07-08 12:28:00,SystemResetWarning,0832.2,5.01,000.00,030.0,028.4,000.0,038.6,031.5,32.0,-001.7,0013.12,0007.72,0007.13
2023-07-08 12:29:00,SystemResetWarning,0832.1,4.99,000.00,030.0,028.4,000.0,038.6,031.4,32.1,-001.6,0013.09,0007.76,0007.17
2023-07-08 12:30:00,SystemResetWarning,0832.2,4.99,000.00,030.0,028.3,000.0,038.6,031.4,32.3,-001.4,0012.96,0007.83,0007.21
2023-07-08 12:31:00,SystemResetWarning,0832.2,5.00,000.00,030.0,028.3,000.0,038.6,031.4,32.4,-000.7,0012.96,0007.83,0007.23
2023-07-08 12:32:00,SystemResetWarning,0832.2,5.01,000.00,030.0,028.3,000.0,038.6,031.4,32.6,-000.4,0014.78,0007.80,0007.24
2023-07-08 12:33:00,SystemResetWarning,0832.2,4.99,000.00,029.9,028.2,000.0,038.5,031.4,32.6,-000.5,0014.77,0007.84,0007.26
2023-07-08 12:34:00,SystemResetWarning,0832.1,4.99,000.00,029.9,028.2,000.0,038.5,031.4,32.6,-000.8,0014.38,0007.82,0007.27
2023-07-08 12:35:00,SystemResetWarning,0832.0,5.00,000.00,029.9,028.2,000.0,038.5,031.4,32.6,-001.0,0014.12,0007.80,0007.25
2023-07-08 12:36:00,SystemResetWarning,0832.0,5.00,000.00,029.9,028.2,000.0,038.5,031.3,32.7,-001.1,0014.23,0007.80,0007.23
2023-07-08 12:37:00,SystemResetWarning,0832.0,5.00,000.00,029.9,028.1,000.0,038.5,031.3,32.8,-001.1,0014.27,0007.80,0007.22
2023-07-08 12:38:00,SystemResetWarning,0832.1,5.00,000.00,029.9,028.1,000.0,038.5,031.3,32.8,-000.9,0014.18,0007.76,0007.19
2023-07-08 12:39:00,SystemResetWarning,0832.1,5.00,000.00,029.9,028.1,000.0,038.5,031.3,32.9,-000.8,0014.16,0007.74,0007.16
2023-07-08 12:40:00,SystemResetWarning,0832.2,4.99,000.00,029.9,028.1,000.0,038.5,031.3,32.9,-001.1,0013.95,0007.75,0007.16
2023-07-08 12:41:00,SystemResetWarning,0832.3,5.02,000.00,029.9,028.1,000.0,038.5,031.3,33.0,-001.1,0013.66,0007.71,0007.14
2023-07-08 12:42:00,SystemResetWarning,0832.4,5.00,000.00,029.9,028.1,000.0,038.5,031.3,33.1,-001.5,0013.68,0007.69,0007.12
2023-07-08 12:43:00,SystemResetWarning,0832.5,4.99,000.00,029.9,028.2,000.0,038.5,031.3,33.1,-001.9,0012.98,0007.68,0007.11
2023-07-08 12:44:00,SystemResetWarning,0832.5,4.99,000.00,029.9,028.2,000.0,038.5,031.3,33.1,-001.9,0011.65,0007.66,0007.09
2023-07-08 12:45:00,SystemResetWarning,0832.5,4.99,000.00,029.9,028.2,000.0,038.5,031.3,33.1,-001.7,0011.71,0007.64,0007.07
2023-07-08 12:46:00,SystemResetWarning,0832.4,5.00,000.00,029.9,028.3,000.0,038.5,031.3,33.1,-001.6,0011.76,0007.66,0007.07
2023-07-08 12:47:00,SystemResetWarning,0832.4,5.00,000.00,029.9,028.3,000.0,038.5,031.3,32.9,-001.8,0011.75,0007.69,0007.09
2023-07-08 12:48:00,SystemResetWarning,0832.3,5.00,000.00,029.9,028.3,000.0,038.5,031.4,32.9,-001.2,0011.73,0007.71,0007.08
2023-07-08 12:49:00,SystemResetWarning,0832.3,5.00,000.00,029.9,028.3,000.0,038.5,031.4,32.8,-000.6,0011.78,0007.72,0007.07
2023-07-08 12:50:00,SystemResetWarning,0832.2,5.01,000.00,029.9,028.3,000.0,038.5,031.4,32.9,-000.8,0011.92,0007.77,0007.08
2023-07-08 12:51:00,SystemResetWarning,0832.2,5.01,000.00,029.9,028.3,000.0,038.5,031.4,32.9,-000.6,0011.80,0007.76,0007.08
2023-07-08 12:52:00,SystemResetWarning,0832.0,5.00,000.00,029.9,028.3,000.0,038.5,031.3,32.9,-000.3,0011.87,0007.78,0007.07
2023-07-08 12:53:00,SystemResetWarning,0832.0,5.00,000.00,029.9,028.3,000.0,038.5,031.3,32.9,-000.2,0011.82,0007.76,0007.07
2023-07-08 12:54:00,SystemResetWarning,0832.0,4.99,000.00,029.9,028.3,000.0,038.5,031.3,33.2,-000.1,0011.91,0007.77,0007.06
2023-07-08 12:55:00,SystemResetWarning,0832.0,4.99,000.00,029.9,028.2,000.0,038.5,031.3,33.2,-000.2,0012.04,0007.79,0007.05
2023-07-08 12:56:00,SystemResetWarning,0832.2,4.99,000.00,029.9,028.2,000.0,038.5,031.3,33.4,-000.3,0012.07,0007.79,0007.03
2023-07-08 12:57:00,SystemResetWarning,0832.2,4.99,000.00,029.9,028.2,000.0,038.5,031.3,33.3,0000.0,0012.00,0007.76,0007.04
2023-07-08 12:58:00,SystemResetWarning,0832.2,5.01,000.00,029.9,028.2,000.0,038.5,031.3,33.3,0000.6,0012.81,0007.73,0007.00
2023-07-08 12:59:00,SystemResetWarning,0832.2,5.02,000.00,029.9,028.2,000.0,038.5,031.3,33.4,0000.3,0012.80,0007.72,0006.99
